Total_Precipitation_Accumulation
0.09 0.32 0.75 2.06 4.54 2.57 2.80 1.74 1.99 1.13 0.44 0.23 0.13 0.19 0.33 0.50 1.27 1.79 0.31 0.38 0.19 0.26 0.37 1.39 2.09 1.71 1.55 1.24 1.20 0.92 0.80 0.66 0.76 0.68 0.73 0.71 0.51 0.48 0.69 0.68 0.78 0.86 0.92 0.86 0.77 0.81 0.77 0.61 0.57
0.25 1.00 1.64 4.91 4.72 3.61 3.99 2.21 2.28 1.25 0.55 0.41 0.18 0.13 0.27 0.30 0.18 0.07 0.17 0.24 0.08 0.08 0.36 0.56 1.73 1.67 1.31 0.97 1.02 0.85 0.97 0.94 1.17 0.91 0.84 0.69 0.86 0.76 0.72 0.57 0.88 0.98 0.98 1.00 0.84 0.71 0.65 0.62 0.85
0.49 1.51 3.99 5.93 3.29 3.02 2.44 2.78 3.05 1.27 0.58 0.39 0.33 0.32 0.25 0.24 0.10 0.09 0.14 0.12 0.10 0.14 0.31 0.28 0.92 1.06 1.02 1.00 1.03 0.84 0.79 0.86 1.08 1.18 1.05 0.96 0.88 0.83 0.74 0.90 0.81 1.04 0.98 0.87 0.86 0.66 0.76 0.81 1.10
0.57 3.73 5.37 4.53 4.06 2.83 1.53 1.60 1.58 2.04 1.11 0.80 0.48 0.32 0.22 0.22 0.03 0.06 0.16 0.20 0.18 0.45 0.33 0.40 0.56 0.73 0.90 1.02 0.71 0.77 0.78 0.82 1.21 1.31 0.93 0.90 0.94 1.01 1.19 1.44 1.09 0.94 0.67 0.57 0.47 0.49 0.63 0.70 0.81
0.77 3.83 5.75 5.37 3.69 1.86 1.23 1.44 2.81 3.59 1.96 1.44 0.45 0.27 0.19 0.11 0.02 0.03 0.14 0.23 0.22 0.77 0.36 0.73 1.07 1.01 1.00 1.04 1.03 1.02 0.96 0.91 1.29 1.07 1.12 0.99 0.94 0.89 1.34 1.09 0.99 0.70 0.36 0.31 0.27 0.31 0.56 0.68 1.08
1.71 3.37 4.68 4.61 2.33 1.16 1.55 1.81 2.19 2.07 1.36 0.60 0.39 0.18 0.24 0.11 0.06 0.09 0.11 0.19 0.45 0.49 0.32 1.09 1.08 1.44 1.30 1.04 1.20 1.13 1.06 1.16 1.21 1.10 1.45 1.30 1.64 1.54 1.28 0.87 0.47 0.15 0.07 0.13 0.13 0.46 0.73 1.03 0.93
1.78 4.70 4.35 2.97 2.44 2.45 1.57 1.46 1.45 1.54 0.83 0.41 0.37 0.12 0.22 0.14 0.11 0.09 0.19 0.26 0.30 0.41 0.64 0.90 0.99 0.73 1.04 1.25 1.31 1.49 1.09 1.26 1.15 1.14 1.33 1.17 0.98 1.04 0.92 0.52 0.22 0.08 0.12 0.22 0.24 0.39 0.58 0.81 0.58
1.05 3.56 5.38 3.04 1.36 3.01 1.55 1.22 1.35 1.12 0.75 0.27 0.18 0.11 0.09 0.05 0.19 0.30 0.34 0.37 0.65 1.06 1.56 0.49 0.90 1.08 0.84 0.96 1.15 1.12 1.10 1.17 1.20 1.13 1.37 1.18 0.61 0.65 0.61 0.54 0.37 0.17 0.15 0.16 0.23 0.35 0.49 0.70 0.62
1.58 5.50 4.42 2.46 0.99 2.45 1.29 1.27 1.05 0.82 0.30 0.23 0.24 0.08 0.00 0.01 0.07 0.12 0.15 0.45 1.06 1.03 1.59 0.78 0.45 1.15 1.61 1.15 1.09 1.34 1.46 1.33 1.39 1.25 1.53 2.11 0.80 0.86 0.91 0.54 0.23 0.16 0.19 0.17 0.24 0.26 0.52 0.62 0.38
2.43 4.58 2.72 1.24 0.55 1.09 2.04 1.37 1.10 0.75 0.47 0.31 0.20 0.06 0.01 0.01 0.01 0.07 0.14 0.28 0.60 0.57 1.73 1.40 0.57 0.48 0.77 0.64 1.27 1.56 1.25 1.13 1.14 1.36 1.58 1.86 0.88 0.54 0.37 0.38 0.34 0.29 0.32 0.40 0.45 0.43 0.67 1.10 1.23
2.12 3.79 1.93 0.71 0.47 0.81 1.34 1.04 0.69 0.81 0.57 0.31 0.11 0.05 0.01 0.00 0.01 0.09 0.14 0.11 0.15 0.20 0.32 0.67 1.24 0.46 0.46 0.56 0.36 0.68 0.62 0.39 0.58 0.77 1.08 1.66 0.87 0.41 0.55 0.58 1.07 0.61 0.49 0.77 0.76 0.47 0.65 1.33 1.17
0.97 0.94 1.56 1.29 0.81 0.47 1.02 2.21 0.69 1.54 1.65 0.35 0.20 0.03 0.00 0.00 0.01 0.02 0.02 0.07 0.12 0.07 0.22 0.29 0.31 0.39 0.74 0.47 0.45 0.40 0.21 0.15 0.46 0.59 0.39 0.45 0.39 0.46 0.72 0.78 1.02 0.84 0.75 1.33 0.70 0.67 0.39 0.40 0.39
0.62 0.83 1.00 1.15 0.47 0.55 0.71 1.19 0.89 1.05 0.75 0.35 0.26 0.04 0.01 0.01 0.01 0.04 0.03 0.09 0.08 0.05 0.10 0.15 0.12 0.40 0.60 0.59 0.31 0.42 0.15 0.12 0.35 0.44 0.29 0.46 0.36 0.42 0.62 0.58 0.88 0.68 0.56 1.21 0.46 0.45 0.40 0.30 0.57
0.47 0.72 1.17 1.56 1.15 0.82 0.77 0.94 0.60 0.73 0.46 0.43 0.29 0.03 0.00 0.01 0.01 0.01 0.03 0.03 0.03 0.05 0.03 0.04 0.06 0.19 0.40 0.72 0.44 0.24 0.16 0.07 0.16 0.26 0.32 0.46 0.33 0.56 0.66 0.67 0.40 0.36 0.44 0.44 0.33 0.33 0.60 0.39 0.26
0.32 0.66 1.24 1.72 2.02 1.84 1.26 2.48 1.39 0.78 0.59 0.37 0.16 0.02 0.00 0.00 0.00 0.00 0.00 0.00 0.01 0.00 0.01 0.01 0.03 0.12 0.22 0.28 0.23 0.15 0.18 0.09 0.12 0.17 0.43 0.60 0.48 0.59 0.81 0.56 0.47 0.57 0.49 0.30 0.32 0.20 0.35 0.09 0.17
0.53 0.70 2.14 2.70 2.15 2.45 1.77 3.59 2.60 1.52 1.75 0.30 0.11 0.01 0.00 0.00 0.00 0.00 0.00 0.00 0.00 0.00 0.00 0.02 0.03 0.03 0.13 0.11 0.08 0.10 0.06 0.10 0.10 0.26 0.18 0.33 0.57 0.53 0.73 0.67 0.85 0.67 1.03 0.46 0.36 0.24 0.18 0.04 0.03
0.70 0.84 1.31 2.99 2.77 3.01 2.29 3.57 2.95 1.37 1.11 0.35 0.13 0.04 0.00 0.01 0.00 0.00 0.00 0.00 0.00 0.00 0.00 0.01 0.01 0.01 0.06 0.06 0.10 0.18 0.14 0.16 0.20 0.25 0.33 0.30 0.40 0.48 1.08 1.02 0.89 0.48 0.53 0.39 0.32 0.27 0.11 0.06 0.03
0.44 0.97 1.19 1.91 3.19 2.99 2.55 2.85 2.77 1.67 1.27 0.85 0.30 0.11 0.03 0.01 0.00 0.00 0.00 0.00 0.00 0.00 0.00 0.00 0.02 0.01 0.11 0.25 0.31 0.26 0.21 0.21 0.22 0.18 0.41 0.45 0.43 0.57 0.88 0.81 0.84 0.50 0.55 0.54 0.70 0.20 0.03 0.03 0.03
0.39 0.73 1.42 1.65 2.19 3.36 2.92 2.22 2.60 1.26 0.90 1.15 0.55 0.18 0.07 0.01 0.01 0.01 0.00 0.00 0.00 0.00 0.00 0.00 0.02 0.09 0.17 0.21 0.11 0.14 0.23 0.13 0.17 0.29 0.37 0.49 0.44 0.44 0.58 0.70 0.74 0.93 0.86 1.23 0.34 0.12 0.04 0.04 0.07
0.11 0.37 1.39 1.63 2.00 1.93 2.71 2.03 2.03 1.94 1.01 0.77 0.76 0.28 0.11 0.04 0.01 0.00 0.00 0.00 0.01 0.00 0.00 0.00 0.07 0.16 0.19 0.12 0.15 0.16 0.14 0.13 0.21 0.38 0.47 0.25 0.32 0.41 0.35 0.66 0.49 0.69 0.66 0.54 0.43 0.49 0.33 0.87 0.05
0.13 0.14 0.88 1.94 1.85 1.90 1.68 2.24 1.74 1.91 1.93 1.00 0.92 0.51 0.32 0.06 0.06 0.01 0.00 0.00 0.02 0.01 0.00 0.00 0.06 0.17 0.18 0.27 0.23 0.54 0.65 0.70 0.81 0.56 0.31 0.16 0.22 0.25 0.40 0.50 0.68 0.77 0.66 0.78 0.58 0.25 0.32 0.57 0.15
0.16 0.16 0.41 1.18 1.44 1.47 1.36 1.43 1.61 1.30 1.65 1.94 1.27 0.43 0.22 0.11 0.09 0.07 0.01 0.01 0.01 0.01 0.00 0.00 0.02 0.17 0.16 0.23 0.26 0.56 0.66 0.65 0.50 0.40 0.57 0.36 0.14 0.15 0.20 0.29 0.38 0.62 1.22 1.25 0.62 0.32 0.30 0.33 0.47
0.04 0.07 0.25 0.66 0.98 0.94 0.80 0.76 0.72 1.13 1.22 1.72 1.34 0.40 0.28 0.22 0.12 0.11 0.02 0.03 0.04 0.00 0.00 0.00 0.00 0.15 0.15 0.23 0.63 0.41 0.25 0.48 0.49 0.45 1.05 0.56 0.31 0.15 0.19 0.26 0.40 0.30 0.41 0.45 0.41 0.31 0.24 0.20 0.29
0.02 0.06 0.09 0.33 1.00 0.60 0.25 0.35 0.37 0.76 0.84 1.06 0.91 0.63 0.37 0.14 0.16 0.17 0.11 0.07 0.05 0.01 0.00 0.00 0.00 0.04 0.12 0.20 0.21 0.36 0.48 0.64 1.08 1.21 1.03 0.44 0.24 0.17 0.12 0.15 0.33 0.34 0.46 0.49 0.30 0.26 0.15 0.13 0.22
0.01 0.02 0.16 0.24 0.52 0.44 0.12 0.16 0.31 0.17 0.69 0.77 0.67 0.58 0.40 0.26 0.25 0.19 0.15 0.16 0.13 0.03 0.00 0.00 0.00 0.01 0.04 0.11 0.08 0.17 0.30 0.51 0.86 1.16 0.53 0.62 0.62 0.62 0.33 0.43 0.66 0.29 0.22 0.29 0.30 0.42 0.36 0.18 0.19
0.01 0.01 0.02 0.05 0.12 0.23 0.20 0.36 0.14 0.06 0.15 0.26 0.27 0.24 0.60 0.39 0.38 0.42 0.30 0.31 0.38 0.18 0.02 0.06 0.02 0.02 0.01 0.08 0.07 0.13 0.22 0.22 0.34 0.48 0.70 0.81 0.82 0.83 0.51 0.56 0.54 0.43 0.28 0.24 0.30 0.27 0.16 0.15 0.23
0.02 0.01 0.03 0.04 0.07 0.13 0.31 0.48 0.16 0.14 0.22 0.08 0.15 0.21 0.40 0.66 0.81 0.62 0.37 0.48 0.89 0.58 0.28 0.07 0.08 0.07 0.06 0.04 0.07 0.17 0.20 0.16 0.16 0.43 0.61 0.52 0.68 0.89 1.02 0.50 0.45 0.37 0.32 0.22 0.40 0.28 0.27 0.36 0.45
0.00 0.06 0.07 0.06 0.08 0.08 0.27 0.78 0.44 0.16 0.13 0.16 0.15 0.28 0.27 0.75 1.67 1.91 1.47 0.78 0.87 1.36 1.17 0.75 0.24 0.15 0.22 0.09 0.13 0.25 0.16 0.16 0.23 0.33 0.47 0.58 0.74 1.89 1.76 0.93 0.58 0.46 0.43 0.50 0.57 0.27 0.32 0.43 0.37
0.00 0.02 0.05 0.04 0.03 0.03 0.14 0.29 0.27 0.26 0.13 0.08 0.12 0.29 0.35 0.72 1.48 2.79 2.81 2.33 1.40 1.71 1.15 1.79 0.99 0.77 0.71 0.63 0.56 0.62 0.33 0.16 0.17 0.24 0.37 0.53 0.65 0.79 0.86 1.37 0.77 0.89 0.77 0.69 0.80 0.81 0.71 0.78 0.62
0.00 0.00 0.00 0.02 0.01 0.02 0.03 0.20 0.26 0.38 0.19 0.10 0.27 0.35 0.77 1.07 1.02 1.66 2.40 2.54 1.97 1.77 1.33 1.46 2.10 1.50 1.33 1.32 1.47 0.99 0.97 0.78 0.48 0.34 0.32 0.46 0.58 0.64 0.78 0.80 1.04 1.09 0.78 1.12 0.94 0.86 0.82 0.84 0.66